timestamp,surface_pressure_avg,surface_temp_avg,battery_voltage,lat,long
2019-08-30 00:00:00+00:00,361.3363,17.9,12.97,47.84626,-54.09684
2019-08-30 00:10:00+00:00,359.2146,17.9,12.89,47.84626,-54.09684
2019-08-30 00:20:00+00:00,355.6046,17.9,12.97,47.84626,-54.09684
2019-08-30 00:30:00+00:00,346.493,17.9,12.97,47.84626,-54.09684
2019-08-30 00:40:00+00:00,339.223,17.87,12.97,47.84626,-54.09684
2019-08-30 00:50:00+00:00,335.1213,17.8,12.97,47.84626,-54.09684
2019-08-30 01:00:00+00:00,327.5946,17.8,12.97,47.84626,-54.09684
2019-08-30 01:10:00+00:00,314.8581,17.8,12.89,47.84626,-54.09684
2019-08-30 01:20:00+00:00,304.348,17.8,12.97,47.84626,-54.09684
2019-08-30 01:30:00+00:00,297.4664,17.8,12.97,47.84626,-54.09684
2019-08-30 01:40:00+00:00,289.6214,17.8,12.97,47.84626,-54.09684
2019-08-30 01:50:00+00:00,278.4147,17.8,12.97,47.84626,-54.09684
2019-08-30 02:00:00+00:00,268.1848,17.8,12.89,47.84626,-54.09684
2019-08-30 02:10:00+00:00,260.1564,17.8,12.81,47.84626,-54.09684
2019-08-30 02:20:00+00:00,250.183,17.8,12.97,47.84626,-54.09684
2019-08-30 02:30:00+00:00,238.8864,17.8,12.97,47.84626,-54.09684
2019-08-30 02:40:00+00:00,230.1281,17.8,12.97,47.84626,-54.09684
2019-08-30 02:50:00+00:00,222.1515,17.8,12.97,47.84626,-54.09684
2019-08-30 03:00:00+00:00,215.4281,17.8,12.89,47.84626,-54.09684
2019-08-30 03:10:00+00:00,210.2931,17.8,12.81,47.84626,-54.09684
2019-08-30 03:20:00+00:00,202.4315,17.8,12.89,47.84626,-54.09684
2019-08-30 03:30:00+00:00,192.5148,17.8,12.97,47.84626,-54.09684
2019-08-30 03:40:00+00:00,186.1281,17.8,12.97,47.84626,-54.09684
2019-08-30 03:50:00+00:00,182.8299,17.8,12.97,47.84626,-54.09684
2019-08-30 04:00:00+00:00,178.2698,17.8,12.89,47.84626,-54.09684
2019-08-30 04:10:00+00:00,173.1148,17.79,12.81,47.84626,-54.09684
2019-08-30 04:20:00+00:00,170.7381,17.8,12.89,47.84626,-54.09684
2019-08-30 04:30:00+00:00,169.5765,17.8,12.89,47.84626,-54.09684
2019-08-30 04:40:00+00:00,165.9115,17.8,12.97,47.84626,-54.09684
2019-08-30 04:50:00+00:00,162.5798,17.8,12.97,47.84626,-54.09684
2019-08-30 05:00:00+00:00,160.3815,17.8,12.89,47.84626,-54.09684
2019-08-30 05:10:00+00:00,157.9665,17.79,12.81,47.84626,-54.09684
2019-08-30 05:20:00+00:00,157.3215,17.77,12.89,47.84626,-54.09684
2019-08-30 05:30:00+00:00,157.7265,17.77,12.89,47.84626,-54.09684
2019-08-30 05:40:00+00:00,157.5398,17.76,12.89,47.84626,-54.09684
2019-08-30 05:50:00+00:00,159.3348,17.72,12.89,47.84626,-54.09684
2019-08-30 06:00:00+00:00,165.7831,17.7,12.81,47.84626,-54.09684
2019-08-30 06:10:00+00:00,171.4315,17.7,12.81,47.84626,-54.09684
2019-08-30 06:20:00+00:00,174.7181,17.7,12.89,47.84626,-54.09684
2019-08-30 06:30:00+00:00,180.1548,17.61,12.89,47.84626,-54.09684
2019-08-30 06:40:00+00:00,185.8248,17.6,12.89,47.84626,-54.09684
2019-08-30 06:50:00+00:00,189.2881,17.5,12.89,47.84626,-54.09684
2019-08-30 07:00:00+00:00,190.0448,17.49,12.81,47.84626,-54.09684
2019-08-30 07:10:00+00:00,191.9631,17.48,12.73,47.84626,-54.09684
2019-08-30 07:20:00+00:00,201.3164,17.48,12.81,47.84626,-54.09684
2019-08-30 07:30:00+00:00,207.6148,17.45,12.89,47.84626,-54.09684
2019-08-30 07:40:00+00:00,211.8514,17.48,12.89,47.84626,-54.09684
2019-08-30 07:50:00+00:00,222.2598,17.49,12.89,47.84626,-54.09684
2019-08-30 08:00:00+00:00,231.5631,17.49,12.81,47.84626,-54.09684
2019-08-30 08:10:00+00:00,241.1581,17.43,12.73,47.84626,-54.09684
2019-08-30 08:20:00+00:00,248.4832,17.4,12.81,47.84626,-54.09684
2019-08-30 08:30:00+00:00,251.6531,17.4,12.81,47.84626,-54.09684
2019-08-30 08:40:00+00:00,256.6964,17.3,12.89,47.84626,-54.09684
2019-08-30 08:50:00+00:00,266.9647,17.3,12.89,47.84626,-54.09684
2019-08-30 09:00:00+00:00,274.6663,17.3,12.81,47.84626,-54.09684
2019-08-30 09:10:00+00:00,282.1331,17.3,12.73,47.84626,-54.09684
2019-08-30 09:20:00+00:00,294.0247,17.34,12.81,47.84626,-54.09684
2019-08-30 09:30:00+00:00,304.3597,17.37,12.81,47.84626,-54.09684
2019-08-30 09:40:00+00:00,309.6497,17.38,12.81,47.84626,-54.09684
2019-08-30 09:50:00+00:00,318.3314,17.39,12.89,47.84626,-54.09684
2019-08-30 10:00:00+00:00,329.5063,17.4,12.81,47.84626,-54.09684
2019-08-30 10:10:00+00:00,333.5463,17.39,12.73,47.84626,-54.09684
2019-08-30 10:20:00+00:00,339.3663,17.39,12.81,47.84626,-54.09684
2019-08-30 10:30:00+00:00,343.438,17.4,12.81,47.84626,-54.09684
2019-08-30 10:40:00+00:00,344.8129,17.36,12.89,47.84626,-54.09684
2019-08-30 10:50:00+00:00,343.2313,17.37,12.89,47.84626,-54.09684
2019-08-30 11:00:00+00:00,346.0746,17.38,12.81,47.84626,-54.09684
2019-08-30 11:10:00+00:00,349.3096,17.39,12.73,47.84626,-54.09684
2019-08-30 11:20:00+00:00,349.4413,17.38,12.89,47.84626,-54.09684
2019-08-30 11:30:00+00:00,345.8162,17.38,12.89,47.84626,-54.09684
2019-08-30 11:40:00+00:00,345.5313,17.38,12.97,47.84626,-54.09684
2019-08-30 11:50:00+00:00,346.7596,17.37,12.97,47.84626,-54.09684
2019-08-30 12:00:00+00:00,344.4163,17.35,12.97,47.84626,-54.09684
2019-08-30 12:10:00+00:00,338.9863,17.32,12.97,47.84626,-54.09684
2019-08-30 12:20:00+00:00,338.4779,17.32,12.97,47.84626,-54.09684
2019-08-30 12:30:00+00:00,338.5897,17.3,13.05,47.84626,-54.09684
2019-08-30 12:40:00+00:00,333.708,17.3,13.13,47.84626,-54.09684
2019-08-30 12:50:00+00:00,325.133,17.3,13.21,47.84626,-54.09684
2019-08-30 13:00:00+00:00,321.8096,17.3,13.21,47.84626,-54.09684
2019-08-30 13:10:00+00:00,320.4563,17.3,13.21,47.84626,-54.09684
2019-08-30 13:20:00+00:00,310.408,17.3,13.37,47.84626,-54.09684
2019-08-30 13:30:00+00:00,297.363,17.33,13.53,47.84626,-54.09684
2019-08-30 13:40:00+00:00,291.6497,17.35,13.53,47.84626,-54.09684
2019-08-30 13:50:00+00:00,285.8848,17.36,13.6,47.84626,-54.09684
2019-08-30 14:00:00+00:00,271.3381,17.36,13.6,47.84626,-54.09684
2019-08-30 14:10:00+00:00,258.2631,17.38,13.44,47.84626,-54.09684
2019-08-30 14:20:00+00:00,253.6881,17.35,13.53,47.84626,-54.09684
2019-08-30 14:30:00+00:00,250.1448,17.35,13.53,47.84626,-54.09684
2019-08-30 14:40:00+00:00,237.7081,17.36,13.6,47.84626,-54.09684
2019-08-30 14:50:00+00:00,222.9464,17.37,13.92,47.84626,-54.09684
2019-08-30 15:00:00+00:00,213.5598,17.35,14.08,47.84626,-54.09684
2019-08-30 15:10:00+00:00,207.8615,17.35,13.84,47.84626,-54.09684
2019-08-30 15:20:00+00:00,198.2498,17.37,14.32,47.84626,-54.09684
2019-08-30 15:30:00+00:00,191.2248,17.39,14.96,47.84626,-54.09684
2019-08-30 15:40:00+00:00,191.3498,17.39,14.32,47.84626,-54.09684
2019-08-30 15:50:00+00:00,185.0731,17.4,14.24,47.84626,-54.09684
2019-08-30 16:00:00+00:00,174.7765,17.4,14.08,47.84626,-54.09684
2019-08-30 16:10:00+00:00,172.0148,17.4,13.92,47.84626,-54.09684
2019-08-30 16:20:00+00:00,168.7998,17.41,14.0,47.84626,-54.09684
2019-08-30 16:30:00+00:00,162.7832,17.43,14.08,47.84626,-54.09684
2019-08-30 16:40:00+00:00,159.2032,17.47,14.16,47.84626,-54.09684
2019-08-30 16:50:00+00:00,156.3249,17.47,14.08,47.84626,-54.09684
2019-08-30 17:00:00+00:00,153.4082,17.46,13.92,47.84626,-54.09684
2019-08-30 17:10:00+00:00,155.2781,17.47,13.76,47.84626,-54.09684
2019-08-30 17:20:00+00:00,159.5432,17.49,13.76,47.84626,-54.09684
2019-08-30 17:30:00+00:00,159.1532,17.47,13.68,47.84626,-54.09684
2019-08-30 17:40:00+00:00,157.8465,17.43,13.68,47.84626,-54.09684
2019-08-30 17:50:00+00:00,161.4598,17.46,13.68,47.84626,-54.09684
2019-08-30 18:00:00+00:00,166.8131,17.49,13.6,47.84626,-54.09684
2019-08-30 18:10:00+00:00,167.1732,17.5,13.44,47.84626,-54.09684
2019-08-30 18:20:00+00:00,168.3298,17.5,13.44,47.84626,-54.09684
2019-08-30 18:30:00+00:00,174.8098,17.5,13.44,47.84626,-54.09684
2019-08-30 18:40:00+00:00,182.1782,17.5,13.44,47.84626,-54.09684
2019-08-30 18:50:00+00:00,185.8282,17.5,13.44,47.84626,-54.09684
2019-08-30 19:00:00+00:00,191.7248,17.5,13.44,47.84626,-54.09684
2019-08-30 19:10:00+00:00,200.0965,17.5,13.29,47.84626,-54.09684
2019-08-30 19:20:00+00:00,204.9014,17.5,13.29,47.84626,-54.09684
2019-08-30 19:30:00+00:00,207.3781,17.5,13.29,47.84626,-54.09684
2019-08-30 19:40:00+00:00,211.8031,17.5,13.29,47.84626,-54.09684
2019-08-30 19:50:00+00:00,216.0948,17.5,13.29,47.84626,-54.09684
2019-08-30 20:00:00+00:00,221.2131,17.5,13.29,47.84626,-54.09684
2019-08-30 20:10:00+00:00,228.9497,17.49,13.13,47.84626,-54.09684
2019-08-30 20:20:00+00:00,238.6948,17.49,13.13,47.84626,-54.09684
2019-08-30 20:30:00+00:00,247.4681,17.48,13.13,47.84626,-54.09684
2019-08-30 20:40:00+00:00,255.3631,17.47,13.21,47.84626,-54.09684
2019-08-30 20:50:00+00:00,264.8498,17.46,13.13,47.84626,-54.09684
2019-08-30 21:00:00+00:00,274.5464,17.46,13.05,47.84626,-54.09684
2019-08-30 21:10:00+00:00,284.1364,17.4,12.97,47.84626,-54.09684
2019-08-30 21:20:00+00:00,295.688,17.4,13.05,47.84626,-54.09684
2019-08-30 21:30:00+00:00,307.4613,17.4,13.05,47.84626,-54.09684
2019-08-30 21:40:00+00:00,314.5314,17.4,13.05,47.84626,-54.09684
2019-08-30 21:50:00+00:00,321.3297,17.4,13.05,47.84626,-54.09684
2019-08-30 22:00:00+00:00,333.0596,17.4,12.97,47.84626,-54.09684
2019-08-30 22:10:00+00:00,341.7147,17.4,12.89,47.84626,-54.09684
2019-08-30 22:20:00+00:00,348.9729,17.4,12.97,47.84626,-54.09684
2019-08-30 22:30:00+00:00,355.1579,17.4,12.97,47.84626,-54.09684
2019-08-30 22:40:00+00:00,364.6962,17.4,13.05,47.84626,-54.09684
2019-08-30 22:50:00+00:00,369.7596,17.4,13.05,47.84626,-54.09684
2019-08-30 23:00:00+00:00,372.6079,17.4,12.97,47.84626,-54.09684
2019-08-30 23:10:00+00:00,377.208,17.4,12.89,47.84626,-54.09684
2019-08-30 23:20:00+00:00,381.7429,17.4,12.97,47.84626,-54.09684
2019-08-30 23:30:00+00:00,383.1313,17.4,12.97,47.84626,-54.09684
2019-08-30 23:40:00+00:00,380.7596,17.4,12.97,47.84626,-54.09684
2019-08-30 23:50:00+00:00,381.9479,17.4,13.05,47.84626,-54.09684
